| time (UTC) | temp F | wind direction | speed knots | gust knots | rain 1hr in | rain 24hr in | rain mn in | humidity % | barometer mb |
| 20260508084526 | 50 | 328 | 10.4 | 14.8 | 0.00 | 0.00 | 0.00 | 9 | 1012.6 |
| 20260508083529 | 50 | 329 | 10.4 | 14.8 | 0.00 | 0.00 | 0.00 | 9 | 1012.6 |
| 20260508082017 | 50 | 330 | 7.8 | 14.8 | 0.00 | 0.00 | 0.00 | 9 | 1012.7 |
| 20260508081929 | 50 | 330 | 7.8 | 14.8 | 0.00 | 0.00 | 0.00 | 9 | 1012.7 |
| 20260508080929 | 50 | 328 | 10.4 | 16.5 | 0.00 | 0.00 | 0.00 | 9 | 1012.8 |
| 20260508080015 | 50 | 314 | 9.6 | 15.6 | 0.00 | 0.00 | 0.00 | 9 | 1012.9 |
| 20260508075929 | 50 | 314 | 9.6 | 15.6 | 0.00 | 0.00 | 0.00 | 9 | 1012.9 |
| 20260508074928 | 50 | 320 | 10.4 | 17.4 | 0.00 | 0.00 | 0.00 | 9 | 1013.0 |
| 20260508074000 | 50 | 321 | 9.6 | 14.8 | 0.00 | 0.00 | 0.00 | 9 | 1013.0 |
| 20260508073928 | 50 | 321 | 9.6 | 14.8 | 0.00 | 0.00 | 0.00 | 9 | 1013.0 |
| 20260508072931 | 50 | 319 | 10.4 | 17.4 | 0.00 | 0.00 | 0.00 | 9 | 1013.1 |
| 20260508071316 | 51 | 318 | 10.4 | 18.2 | 0.00 | 0.00 | 0.00 | 9 | 1013.0 |
| 20260508071228 | 51 | 318 | 10.4 | 18.2 | 0.00 | 0.00 | 0.00 | 9 | 1013.0 |
| 20260508070229 | 51 | 332 | 10.4 | 16.5 | 0.00 | 0.00 | 0.00 | 10 | 1013.2 |
| 20260508065227 | 51 | 324 | 9.6 | 18.2 | 0.00 | 0.00 | 0.00 | 9 | 1013.2 |
| 20260508064228 | 51 | 319 | 9.6 | 17.4 | 0.00 | 0.00 | 0.00 | 10 | 1013.2 |
| 20260508063228 | 51 | 317 | 9.6 | 14.8 | 0.00 | 0.00 | 0.00 | 10 | 1013.2 |
| 20260508062227 | 51 | 317 | 10.4 | 18.2 | 0.00 | 0.00 | 0.00 | 9 | 1013.2 |
| 20260508061227 | 51 | 331 | 10.4 | 16.5 | 0.00 | 0.00 | 0.00 | 8 | 1013.2 |
| 20260508060227 | 51 | 322 | 9.6 | 15.6 | 0.00 | 0.00 | 0.00 | 8 | 1013.2 |
| 20260508055228 | 51 | 323 | 8.7 | 15.6 | 0.00 | 0.00 | 0.00 | 7 | 1013.2 |
| 20260508054328 | 51 | 329 | 8.7 | 13.9 | 0.00 | 0.00 | 0.00 | 7 | 1013.2 |
| 20260508054229 | 51 | 329 | 8.7 | 13.9 | 0.00 | 0.00 | 0.00 | 7 | 1013.2 |
| 20260508053228 | 51 | 327 | 8.7 | 13.9 | 0.00 | 0.00 | 0.00 | 7 | 1013.2 |
| 20260508052336 | 51 | 323 | 10.4 | 15.6 | 0.00 | 0.00 | 0.00 | 6 | 1013.2 |
| 20260508052227 | 51 | 323 | 10.4 | 15.6 | 0.00 | 0.00 | 0.00 | 6 | 1013.2 |
| 20260508051302 | 51 | 318 | 10.4 | 16.5 | 0.00 | 0.00 | 0.00 | 6 | 1013.1 |
| 20260508051227 | 51 | 318 | 10.4 | 16.5 | 0.00 | 0.00 | 0.00 | 6 | 1013.1 |
| 20260508050301 | 51 | 319 | 10.4 | 14.8 | 0.00 | 0.00 | 0.00 | 6 | 1013.1 |
| 20260508050227 | 51 | 319 | 10.4 | 14.8 | 0.00 | 0.00 | 0.00 | 6 | 1013.1 |
| 20260508045306 | 51 | 315 | 10.4 | 15.6 | 0.00 | 0.00 | 0.00 | 6 | 1013.1 |
| 20260508045227 | 51 | 315 | 10.4 | 15.6 | 0.00 | 0.00 | 0.00 | 6 | 1013.1 |
| 20260508044317 | 51 | 317 | 9.6 | 19.1 | 0.00 | 0.00 | 0.00 | 5 | 1013.0 |
| 20260508044227 | 51 | 317 | 9.6 | 19.1 | 0.00 | 0.00 | 0.00 | 5 | 1013.0 |
| 20260508043301 | 51 | 319 | 9.6 | 15.6 | 0.00 | 0.00 | 0.00 | 5 | 1012.9 |
| 20260508043227 | 51 | 319 | 9.6 | 15.6 | 0.00 | 0.00 | 0.00 | 5 | 1012.9 |
| 20260508042227 | 51 | 324 | 10.4 | 14.8 | 0.00 | 0.00 | 0.00 | 5 | 1012.8 |
| 20260508041228 | 51 | 312 | 9.6 | 15.6 | 0.00 | 0.00 | 0.00 | 5 | 1012.7 |
| 20260508040302 | 51 | 316 | 9.6 | 16.5 | 0.00 | 0.00 | 0.00 | 4 | 1012.7 |
| 20260508040227 | 51 | 316 | 9.6 | 16.5 | 0.00 | 0.00 | 0.00 | 4 | 1012.7 |
| 20260508035325 | 51 | 316 | 8.7 | 16.5 | 0.00 | 0.00 | 0.00 | 4 | 1012.6 |
| 20260508035227 | 51 | 316 | 8.7 | 16.5 | 0.00 | 0.00 | 0.00 | 4 | 1012.6 |
| 20260508034310 | 52 | 310 | 13.0 | 18.2 | 0.00 | 0.00 | 0.00 | 4 | 1012.5 |
| 20260508034228 | 52 | 310 | 13.0 | 18.2 | 0.00 | 0.00 | 0.00 | 4 | 1012.5 |
| 20260508033303 | 52 | 310 | 11.3 | 17.4 | 0.00 | 0.00 | 0.00 | 4 | 1012.3 |
| 20260508033227 | 52 | 310 | 11.3 | 17.4 | 0.00 | 0.00 | 0.00 | 4 | 1012.3 |
| 20260508032306 | 52 | 309 | 10.4 | 14.8 | 0.00 | 0.00 | 0.00 | 3 | 1012.2 |
| 20260508032227 | 52 | 309 | 10.4 | 14.8 | 0.00 | 0.00 | 0.00 | 3 | 1012.2 |
| 20260508031326 | 52 | 301 | 10.4 | 14.8 | 0.00 | 0.00 | 0.00 | 3 | 1012.2 |
| 20260508031227 | 52 | 301 | 10.4 | 14.8 | 0.00 | 0.00 | 0.00 | 3 | 1012.2 |
| 20260508030302 | 52 | 310 | 9.6 | 15.6 | 0.00 | 0.00 | 0.00 | 3 | 1012.1 |
| 20260508030227 | 52 | 310 | 9.6 | 15.6 | 0.00 | 0.00 | 0.00 | 3 | 1012.1 |
| 20260508025227 | 52 | 311 | 10.4 | 15.6 | 0.00 | 0.00 | 0.00 | 3 | 1012.0 |
| 20260508024227 | 52 | 316 | 7.8 | 12.2 | 0.00 | 0.00 | 0.00 | 3 | 1012.0 |
| 20260508023228 | 52 | 312 | 7.8 | 12.2 | 0.00 | 0.00 | 0.00 | 4 | 1011.8 |
| 20260508022326 | 53 | 309 | 7.0 | 10.4 | 0.00 | 0.00 | 0.00 | 4 | 1011.7 |
| 20260508022227 | 53 | 309 | 7.0 | 10.4 | 0.00 | 0.00 | 0.00 | 4 | 1011.7 |
| 20260508021318 | 53 | 308 | 7.0 | 10.4 | 0.00 | 0.00 | 0.00 | 4 | 1011.7 |
| 20260508021227 | 53 | 308 | 7.0 | 10.4 | 0.00 | 0.00 | 0.00 | 4 | 1011.7 |
| 20260508020229 | 54 | 297 | 6.1 | 9.6 | 0.00 | 0.00 | 0.00 | 3 | 1011.8 |
| 20260508015227 | 55 | 303 | 3.5 | 7.8 | 0.00 | 0.00 | 0.00 | 1 | 1011.8 |
| 20260508014227 | 56 | 322 | 1.7 | 7.0 | 0.00 | 0.00 | 0.00 | 1 | 1011.8 |
| 20260508013228 | 56 | 325 | 4.3 | 7.8 | 0.00 | 0.00 | 0.00 | 2 | 1011.8 |
| 20260508012227 | 57 | 16 | 0.9 | 4.3 | 0.00 | 0.00 | 0.00 | 1 | 1011.8 |
| 20260508011227 | 57 | 322 | 1.7 | 6.1 | 0.00 | 0.00 | 0.00 | 1 | 1011.8 |
| 20260508010230 | 57 | 21 | 0.9 | 4.3 | 0.00 | 0.00 | 0.00 | 1 | 1011.8 |
| 20260508005227 | 57 | 21 | 0.9 | 4.3 | 0.00 | 0.00 | 0.00 | 1 | 1011.7 |
| 20260508004227 | 57 | 47 | 2.6 | 6.1 | 0.00 | 0.00 | 0.00 | 1 | 1011.7 |
| 20260508003227 | 58 | 22 | 2.6 | 5.2 | 0.00 | 0.00 | 0.00 | 1 | 1011.7 |
| 20260508002227 | 57 | 330 | 0.9 | 7.0 | 0.00 | 0.00 | 0.00 | 2 | 1011.7 |
| 20260508001227 | 57 | 83 | 2.6 | 7.0 | 0.00 | 0.00 | 0.00 | 2 | 1011.7 |
| 20260507235227 | 57 | 97 | 1.7 | 7.0 | 0.00 | 0.00 | 0.00 | 1 | 1011.7 |
| 20260507234227 | 58 | 112 | 1.7 | 7.8 | 0.00 | 0.00 | 0.00 | 1 | 1011.6 |
| 20260507233231 | 58 | 31 | 2.6 | 6.1 | 0.00 | 0.00 | 0.00 | 1 | 1011.7 |
| 20260507232228 | 59 | 10 | 1.7 | 6.1 | 0.00 | 0.00 | 0.00 | 2 | 1011.7 |
| 20260507231227 | 58 | 327 | 0.9 | 3.5 | 0.00 | 0.00 | 0.00 | 3 | 1011.7 |
| 20260507230231 | 57 | 102 | 0.9 | 8.7 | 0.00 | 0.00 | 0.00 | 3 | 1011.7 |
| 20260507225229 | 57 | 51 | 3.5 | 9.6 | 0.00 | 0.00 | 0.00 | 4 | 1011.6 |
| 20260507224229 | 56 | 103 | 2.6 | 9.6 | 0.00 | 0.00 | 0.00 | 4 | 1011.7 |
| 20260507223301 | 57 | 103 | 7.0 | 10.4 | 0.00 | 0.00 | 0.00 | 4 | 1011.7 |
| 20260507223227 | 57 | 103 | 7.0 | 10.4 | 0.00 | 0.00 | 0.00 | 4 | 1011.7 |
| 20260507222227 | 57 | 109 | 5.2 | 8.7 | 0.00 | 0.00 | 0.00 | 4 | 1011.8 |
| 20260507221228 | 57 | 24 | 2.6 | 7.0 | 0.00 | 0.00 | 0.00 | 6 | 1011.8 |
| 20260507220228 | 57 | 46 | 2.6 | 7.8 | 0.00 | 0.00 | 0.00 | 4 | 1011.9 |
| 20260507215227 | 58 | 46 | 4.3 | 8.7 | 0.00 | 0.00 | 0.00 | 3 | 1012.0 |
| 20260507214227 | 57 | 134 | 1.7 | 5.2 | 0.00 | 0.00 | 0.00 | 6 | 1012.1 |
| 20260507213229 | 56 | 79 | 0.9 | 8.7 | 0.00 | 0.00 | 0.00 | 7 | 1012.1 |
| 20260507212229 | 57 | 24 | 0.9 | 5.2 | 0.00 | 0.00 | 0.00 | 6 | 1012.3 |
| 20260507211227 | 57 | 312 | 2.6 | 6.1 | 0.00 | 0.00 | 0.00 | 7 | 1012.4 |
| 20260507210227 | 58 | 37 | 2.6 | 8.7 | 0.00 | 0.00 | 0.00 | 7 | 1012.5 |
| 20260507205227 | 58 | 334 | 4.3 | 9.6 | 0.00 | 0.00 | 0.00 | 8 | 1012.4 |
| 20260507204227 | 57 | 33 | 0.9 | 7.0 | 0.00 | 0.00 | 0.00 | 8 | 1012.5 |
| 20260507203301 | 56 | 72 | 0.9 | 7.8 | 0.00 | 0.00 | 0.00 | 9 | 1012.6 |
| 20260507203228 | 56 | 72 | 0.9 | 7.8 | 0.00 | 0.00 | 0.00 | 9 | 1012.6 |
| 20260507202227 | 56 | 68 | 1.7 | 7.8 | 0.00 | 0.00 | 0.00 | 9 | 1012.7 |
| 20260507201227 | 56 | 83 | 2.6 | 9.6 | 0.00 | 0.00 | 0.00 | 9 | 1012.7 |
| 20260507200227 | 55 | 73 | 4.3 | 8.7 | 0.00 | 0.00 | 0.00 | 9 | 1012.7 |
| 20260507195229 | 55 | 100 | 1.7 | 9.6 | 0.00 | 0.00 | 0.00 | 9 | 1012.7 |
| 20260507194301 | 56 | 66 | 4.3 | 9.6 | 0.00 | 0.00 | 0.00 | 10 | 1012.7 |
| 20260507194227 | 56 | 66 | 4.3 | 9.6 | 0.00 | 0.00 | 0.00 | 10 | 1012.7 |
| 20260507193555 | 56 | 351 | 0.9 | 7.8 | 0.00 | 0.00 | 0.00 | 8 | 1012.9 |
| 20260507193227 | 56 | 351 | 0.9 | 7.8 | 0.00 | 0.00 | 0.00 | 8 | 1012.9 |
| 20260507192227 | 56 | 0 | 0.0 | 7.8 | 0.00 | 0.00 | 0.00 | 10 | 1013.0 |
| 20260507190426 | 56 | 219 | 0.9 | 5.2 | 0.00 | 0.00 | 0.00 | 10 | 1013.1 |
| 20260507185427 | 55 | 81 | 3.5 | 6.1 | 0.00 | 0.00 | 0.00 | 10 | 1013.2 |
| 20260507184427 | 54 | 123 | 7.0 | 10.4 | 0.00 | 0.00 | 0.00 | 8 | 1013.2 |
| 20260507183426 | 54 | 0 | 0.0 | 9.6 | 0.00 | 0.00 | 0.00 | 10 | 1013.1 |
| 20260507182426 | 54 | 96 | 2.6 | 7.8 | 0.00 | 0.00 | 0.00 | 11 | 1013.2 |
| 20260507181426 | 54 | 79 | 2.6 | 6.1 | 0.00 | 0.00 | 0.00 | 12 | 1013.2 |
| 20260507180426 | 53 | 66 | 2.6 | 7.8 | 0.00 | 0.00 | 0.00 | 12 | 1013.2 |
| 20260507175426 | 52 | 67 | 2.6 | 10.4 | 0.00 | 0.00 | 0.00 | 12 | 1013.2 |
| 20260507174426 | 52 | 60 | 2.6 | 9.6 | 0.00 | 0.00 | 0.00 | 15 | 1013.2 |
| 20260507173427 | 52 | 51 | 6.1 | 9.6 | 0.00 | 0.00 | 0.00 | 10 | 1013.2 |
| 20260507172426 | 51 | 71 | 3.5 | 9.6 | 0.00 | 0.00 | 0.00 | 13 | 1013.2 |
| 20260507171426 | 51 | 65 | 3.5 | 9.6 | 0.00 | 0.00 | 0.00 | 14 | 1013.2 |
| 20260507170426 | 51 | 73 | 4.3 | 11.3 | 0.00 | 0.00 | 0.00 | 11 | 1013.2 |
| 20260507165426 | 51 | 73 | 4.3 | 12.2 | 0.00 | 0.00 | 0.00 | 12 | 1013.2 |
| 20260507164503 | 50 | 74 | 5.2 | 10.4 | 0.00 | 0.00 | 0.00 | 13 | 1013.1 |
| 20260507164426 | 50 | 74 | 5.2 | 10.4 | 0.00 | 0.00 | 0.00 | 13 | 1013.1 |
| 20260507163426 | 50 | 56 | 5.2 | 12.2 | 0.00 | 0.00 | 0.00 | 13 | 1013.0 |
| 20260507161929 | 50 | 64 | 4.3 | 12.2 | 0.00 | 0.00 | 0.00 | 13 | 1013.1 |
| 20260507160928 | 49 | 65 | 7.0 | 13.0 | 0.00 | 0.00 | 0.00 | 13 | 1013.1 |
| 20260507155928 | 49 | 68 | 7.0 | 14.8 | 0.00 | 0.00 | 0.00 | 12 | 1013.1 |
| 20260507154928 | 49 | 63 | 8.7 | 13.9 | 0.00 | 0.00 | 0.00 | 11 | 1013.1 |
| 20260507153928 | 49 | 66 | 7.0 | 14.8 | 0.00 | 0.00 | 0.00 | 15 | 1013.0 |
| 20260507152928 | 48 | 67 | 7.0 | 13.9 | 0.00 | 0.00 | 0.00 | 18 | 1012.9 |
| 20260507151928 | 48 | 69 | 7.8 | 18.2 | 0.00 | 0.00 | 0.00 | 16 | 1012.9 |
| 20260507150928 | 48 | 60 | 7.8 | 14.8 | 0.00 | 0.00 | 0.00 | 19 | 1012.9 |
| 20260507145927 | 48 | 66 | 8.7 | 13.9 | 0.00 | 0.00 | 0.00 | 21 | 1012.9 |
| 20260507144928 | 48 | 66 | 8.7 | 13.9 | 0.00 | 0.00 | 0.00 | 22 | 1012.9 |
| 20260507143928 | 48 | 71 | 7.8 | 13.9 | 0.00 | 0.00 | 0.00 | 23 | 1012.9 |
| 20260507142928 | 47 | 71 | 8.7 | 14.8 | 0.00 | 0.00 | 0.00 | 24 | 1012.8 |
| 20260507141928 | 47 | 64 | 8.7 | 13.9 | 0.00 | 0.00 | 0.00 | 26 | 1012.9 |
| 20260507140928 | 46 | 68 | 7.8 | 13.9 | 0.00 | 0.00 | 0.00 | 28 | 1012.8 |
| 20260507135928 | 46 | 67 | 8.7 | 16.5 | 0.00 | 0.00 | 0.00 | 29 | 1012.8 |
| 20260507134928 | 46 | 68 | 7.8 | 17.4 | 0.00 | 0.00 | 0.00 | 31 | 1012.7 |
| 20260507133927 | 46 | 67 | 8.7 | 13.9 | 0.00 | 0.00 | 0.00 | 31 | 1012.6 |
| 20260507132928 | 45 | 65 | 8.7 | 13.0 | 0.00 | 0.00 | 0.00 | 31 | 1012.6 |
| 20260507131930 | 45 | 64 | 8.7 | 16.5 | 0.00 | 0.00 | 0.00 | 32 | 1012.5 |
| 20260507130928 | 44 | 60 | 9.6 | 15.6 | 0.00 | 0.00 | 0.00 | 32 | 1012.4 |
| 20260507125928 | 44 | 60 | 7.8 | 14.8 | 0.00 | 0.00 | 0.00 | 33 | 1012.4 |
| 20260507124928 | 44 | 65 | 9.6 | 15.6 | 0.00 | 0.00 | 0.00 | 33 | 1012.4 |
| 20260507123928 | 44 | 66 | 7.8 | 13.0 | 0.00 | 0.00 | 0.00 | 33 | 1012.3 |
| 20260507122928 | 43 | 65 | 7.8 | 13.9 | 0.00 | 0.00 | 0.00 | 33 | 1012.3 |
| 20260507121928 | 43 | 62 | 8.7 | 13.0 | 0.00 | 0.00 | 0.00 | 33 | 1012.4 |
| 20260507120928 | 43 | 66 | 7.0 | 11.3 | 0.00 | 0.00 | 0.00 | 33 | 1012.3 |
| 20260507115928 | 43 | 70 | 7.0 | 12.2 | 0.00 | 0.00 | 0.00 | 32 | 1012.3 |
| 20260507114928 | 42 | 65 | 7.0 | 12.2 | 0.00 | 0.00 | 0.00 | 33 | 1012.3 |
| 20260507113928 | 42 | 58 | 7.0 | 11.3 | 0.00 | 0.00 | 0.00 | 33 | 1012.3 |
| 20260507112928 | 42 | 57 | 7.0 | 10.4 | 0.00 | 0.00 | 0.00 | 34 | 1012.4 |
| 20260507111928 | 41 | 56 | 7.0 | 11.3 | 0.00 | 0.00 | 0.00 | 35 | 1012.4 |
| 20260507110928 | 41 | 56 | 6.1 | 11.3 | 0.00 | 0.00 | 0.00 | 36 | 1012.4 |
| 20260507105928 | 42 | 55 | 7.0 | 13.0 | 0.00 | 0.00 | 0.00 | 34 | 1012.4 |
| 20260507104928 | 42 | 60 | 7.8 | 12.2 | 0.00 | 0.00 | 0.00 | 34 | 1012.4 |
| 20260507103928 | 43 | 59 | 7.8 | 11.3 | 0.00 | 0.00 | 0.00 | 34 | 1012.4 |
| 20260507102928 | 44 | 60 | 7.8 | 14.8 | 0.00 | 0.00 | 0.00 | 34 | 1012.4 |
| 20260507101928 | 43 | 58 | 8.7 | 13.9 | 0.00 | 0.00 | 0.00 | 34 | 1012.4 |
| 20260507100929 | 43 | 55 | 7.8 | 13.0 | 0.00 | 0.00 | 0.00 | 34 | 1012.5 |
| 20260507095928 | 43 | 60 | 7.8 | 13.9 | 0.00 | 0.00 | 0.00 | 34 | 1012.5 |
| 20260507094928 | 43 | 54 | 7.8 | 11.3 | 0.00 | 0.00 | 0.00 | 34 | 1012.6 |
| 20260507093928 | 43 | 58 | 7.8 | 12.2 | 0.00 | 0.00 | 0.00 | 34 | 1012.6 |
| 20260507092928 | 43 | 56 | 7.0 | 11.3 | 0.00 | 0.00 | 0.00 | 34 | 1012.6 |
| 20260507091928 | 43 | 56 | 6.1 | 11.3 | 0.00 | 0.00 | 0.00 | 34 | 1012.7 |
| 20260507090928 | 43 | 58 | 6.1 | 9.6 | 0.00 | 0.00 | 0.00 | 34 | 1012.7 |
| 20260507085928 | 43 | 54 | 5.2 | 8.7 | 0.00 | 0.00 | 0.00 | 34 | 1012.8 |